• în România
  • Lista ţărilor
  • Pe 7 zile
  • Temperatura apei
  • Hartă satelitară
  • Meteo pe hartă
  • Widget-uri
  • user-avatar
    Intrare

    Meteo pe oră la Zagreb

    Astăzi, 17 Octombrie, Marţi

    Timp Temperatura Precipitaţii Vânt Presiune Umiditate
    00:00 +13°C° 0 mm 0 m/s 759 mmHg 87%
    01:00 +13°C° 0 mm 0 m/s 759 mmHg 89%
    02:00 +12°C° 0 mm 0 m/s 759 mmHg 89%
    03:00 +12°C° 0 mm 0 m/s 759 mmHg 90%
    04:00 +12°C° 0 mm 0 m/s 759 mmHg 90%
    05:00 +12°C° 0 mm 0 m/s 759 mmHg 90%
    06:00 +12°C° 0 mm 0 m/s 759 mmHg 89%
    07:00 +11°C° 0 mm 0 m/s 759 mmHg 83%
    08:00 +14°C° 0 mm 0 m/s 759 mmHg 75%
    09:00 +16°C° 0 mm 0 m/s 759 mmHg 67%
    10:00 +19°C° 0 mm 0 m/s 759 mmHg 58%
    11:00 +20°C° 0 mm 0 m/s 758 mmHg 55%
    12:00 +21°C° 0 mm 0 m/s 758 mmHg 52%
    13:00 +23°C° 0 mm 0 m/s 758 mmHg 49%
    14:00 +22°C° 0 mm 0 m/s 757 mmHg 54%
    15:00 +21°C° 0 mm 0 m/s 757 mmHg 59%
    16:00 +22°C° 0 mm 1 m/s 756 mmHg 64%
    17:00 +18°C° 0 mm 0 m/s 756 mmHg 69%
    18:00 +16°C° 0 mm 0 m/s 756 mmHg 75%
    19:00 +15°C° 0 mm 0 m/s 756 mmHg 80%
    20:00 +14°C° 0 mm 0 m/s 756 mmHg 81%
    21:00 +14°C° 0 mm 0 m/s 756 mmHg 82%
    22:00 +14°C° 0 mm 0 m/s 756 mmHg 83%
    23:00 +15°C° 0 mm 1 m/s 756 mmHg 84%

    Mâine, 18 Octombrie, Miercuri

    Timp Temperatura Precipitaţii Vânt Presiune Umiditate
    00:00 +14°C° 0 mm 1 m/s 755 mmHg 85%
    01:00 +14°C° 0 mm 1 m/s 755 mmHg 86%
    02:00 +14°C° 0 mm 1 m/s 755 mmHg 87%
    03:00 +14°C° 0 mm 1 m/s 754 mmHg 88%
    04:00 +13°C° 0 mm 1 m/s 754 mmHg 89%
    05:00 +13°C° 0 mm 1 m/s 754 mmHg 88%
    06:00 +13°C° 0 mm 1 m/s 754 mmHg 87%
    07:00 +13°C° 0 mm 1 m/s 754 mmHg 86%
    08:00 +15°C° 0 mm 1 m/s 754 mmHg 75%
    09:00 +18°C° 0 mm 1 m/s 753 mmHg 64%
    10:00 +21°C° 0 mm 1 m/s 753 mmHg 53%
    11:00 +21°C° 0 mm 2 m/s 753 mmHg 48%
    12:00 +23°C° 0 mm 2 m/s 753 mmHg 44%
    13:00 +25°C° 0 mm 2 m/s 752 mmHg 39%
    14:00 +24°C° 0 mm 2 m/s 752 mmHg 44%
    15:00 +23°C° 0 mm 2 m/s 752 mmHg 49%
    16:00 +21°C° 0 mm 2 m/s 751 mmHg 54%
    17:00 +19°C° 0 mm 2 m/s 752 mmHg 59%
    18:00 +18°C° 0 mm 2 m/s 752 mmHg 64%
    19:00 +16°C° 0 mm 2 m/s 752 mmHg 69%
    20:00 +15°C° 0 mm 2 m/s 752 mmHg 72%
    21:00 +14°C° 0 mm 2 m/s 752 mmHg 74%
    22:00 +14°C° 0 mm 2 m/s 752 mmHg 77%
    23:00 +13°C° 0 mm 2 m/s 752 mmHg 78%

    Poimâine, 19 Octombrie, Joi

    Timp Temperatura Precipitaţii Vânt Presiune Umiditate
    00:00 +13°C° 0 mm 2 m/s 752 mmHg 80%
    01:00 +12°C° 0 mm 2 m/s 752 mmHg 82%
    02:00 +12°C° 0 mm 2 m/s 752 mmHg 82%
    03:00 +12°C° 0 mm 2 m/s 752 mmHg 82%
    04:00 +11°C° 0 mm 1 m/s 752 mmHg 82%
    05:00 +11°C° 0 mm 1 m/s 752 mmHg 82%
    06:00 +11°C° 0 mm 1 m/s 752 mmHg 82%
    07:00 +11°C° 0 mm 1 m/s 752 mmHg 82%
    08:00 +14°C° 0 mm 1 m/s 752 mmHg 73%
    09:00 +18°C° 0 mm 1 m/s 752 mmHg 64%
    10:00 +20°C° 0 mm 1 m/s 752 mmHg 56%
    11:00 +21°C° 0 mm 2 m/s 752 mmHg 52%
    12:00 +23°C° 0 mm 2 m/s 752 mmHg 48%
    13:00 +24°C° 0 mm 2 m/s 752 mmHg 44%
    14:00 +23°C° 0 mm 2 m/s 752 mmHg 48%
    15:00 +23°C° 0 mm 1 m/s 751 mmHg 53%
    16:00 +22°C° 0 mm 1 m/s 751 mmHg 57%
    17:00 +20°C° 0 mm 1 m/s 751 mmHg 62%
    18:00 +18°C° 0 mm 1 m/s 752 mmHg 66%
    19:00 +15°C° 0 mm 1 m/s 752 mmHg 71%
    20:00 +15°C° 0 mm 1 m/s 752 mmHg 73%
    21:00 +14°C° 0 mm 1 m/s 752 mmHg 76%
    22:00 +14°C° 0 mm 1 m/s 753 mmHg 78%
    23:00 +13°C° 0 mm 1 m/s 753 mmHg 80%

    20 Octombrie, Vineri

    Timp Temperatura Precipitaţii Vânt Presiune Umiditate
    00:00 +13°C° 0 mm 1 m/s 753 mmHg 82%
    01:00 +12°C° 0 mm 1 m/s 753 mmHg 84%
    02:00 +12°C° 0 mm 1 m/s 753 mmHg 85%
    03:00 +12°C° 0 mm 1 m/s 753 mmHg 86%
    04:00 +11°C° 0 mm 1 m/s 753 mmHg 87%
    05:00 +11°C° 0 mm 1 m/s 753 mmHg 87%
    06:00 +11°C° 0 mm 1 m/s 753 mmHg 87%
    07:00 +11°C° 0 mm 1 m/s 753 mmHg 86%
    08:00 +14°C° 0 mm 1 m/s 753 mmHg 77%
    09:00 +18°C° 0 mm 1 m/s 754 mmHg 67%
    10:00 +20°C° 0 mm 1 m/s 754 mmHg 58%
    11:00 +21°C° 0 mm 1 m/s 754 mmHg 54%
    12:00 +22°C° 0 mm 1 m/s 754 mmHg 50%
    13:00 +24°C° 0 mm 1 m/s 753 mmHg 46%
    14:00 +23°C° 0 mm 1 m/s 753 mmHg 51%
    15:00 +22°C° 0 mm 1 m/s 753 mmHg 56%
    16:00 +19°C° 0 mm 0 m/s 753 mmHg 60%
    17:00 +18°C° 0 mm 0 m/s 753 mmHg 65%
    18:00 +18°C° 0 mm 1 m/s 754 mmHg 70%
    19:00 +15°C° 0 mm 1 m/s 754 mmHg 75%
    20:00 +15°C° 0 mm 1 m/s 754 mmHg 78%
    21:00 +14°C° 0 mm 1 m/s 755 mmHg 80%
    22:00 +14°C° 0 mm 1 m/s 755 mmHg 83%
    23:00 +13°C° 0 mm 1 m/s 755 mmHg 84%

    21 Octombrie, Sâmbătă

    Timp Temperatura Precipitaţii Vânt Presiune Umiditate
    00:00 +13°C° 0 mm 1 m/s 755 mmHg 86%
    01:00 +12°C° 0 mm 1 m/s 755 mmHg 88%
    02:00 +12°C° 0 mm 1 m/s 755 mmHg 89%
    03:00 +12°C° 0 mm 1 m/s 754 mmHg 90%
    04:00 +11°C° 0 mm 1 m/s 754 mmHg 91%
    05:00 +11°C° 0 mm 1 m/s 754 mmHg 91%
    06:00 +11°C° 0 mm 1 m/s 754 mmHg 91%
    07:00 +11°C° 0 mm 1 m/s 754 mmHg 90%
    08:00 +14°C° 0 mm 1 m/s 754 mmHg 80%
    09:00 +16°C° 0 mm 1 m/s 754 mmHg 70%
    10:00 +20°C° 0 mm 1 m/s 754 mmHg 60%
    11:00 +21°C° 0 mm 1 m/s 754 mmHg 56%
    12:00 +22°C° 0 mm 1 m/s 754 mmHg 51%
    13:00 +23°C° 0 mm 1 m/s 753 mmHg 47%
    14:00 +23°C° 0 mm 1 m/s 753 mmHg 51%
    15:00 +22°C° 0 mm 1 m/s 753 mmHg 55%
    16:00 +21°C° 0 mm 1 m/s 752 mmHg 60%
    17:00 +20°C° 0 mm 1 m/s 753 mmHg 64%
    18:00 +18°C° 0 mm 1 m/s 753 mmHg 69%
    19:00 +15°C° 0 mm 1 m/s 753 mmHg 74%
    20:00 +15°C° 0 mm 1 m/s 753 mmHg 76%
    21:00 +14°C° 0 mm 1 m/s 753 mmHg 79%
    22:00 +14°C° 0 mm 1 m/s 753 mmHg 82%
    23:00 +13°C° 0 mm 1 m/s 753 mmHg 84%

    22 Octombrie, Duminică

    Timp Temperatura Precipitaţii Vânt Presiune Umiditate
    00:00 +13°C° 0 mm 1 m/s 753 mmHg 86%
    01:00 +12°C° 0 mm 1 m/s 753 mmHg 88%
    02:00 +12°C° 0 mm 1 m/s 753 mmHg 89%
    03:00 +12°C° 0 mm 1 m/s 753 mmHg 89%
    04:00 +12°C° 0 mm 1 m/s 752 mmHg 90%
    05:00 +12°C° 0 mm 1 m/s 752 mmHg 89%
    06:00 +12°C° 0 mm 1 m/s 752 mmHg 89%
    07:00 +12°C° 0 mm 1 m/s 752 mmHg 89%
    08:00 +14°C° 0 mm 1 m/s 752 mmHg 80%
    09:00 +16°C° 0 mm 1 m/s 752 mmHg 72%
    10:00 +20°C° 0 mm 1 m/s 752 mmHg 63%
    11:00 +20°C° 0 mm 1 m/s 751 mmHg 61%
    12:00 +21°C° 0 mm 1 m/s 751 mmHg 59%
    13:00 +22°C° 0 mm 1 m/s 750 mmHg 57%
    14:00 +21°C° 0,1 mm 1 m/s 750 mmHg 63%
    15:00 +18°C° 0,1 mm 0 m/s 750 mmHg 68%
    16:00 +17°C° 0,1 mm 0 m/s 749 mmHg 73%
    17:00 +18°C° 1,3 mm 1 m/s 750 mmHg 77%
    18:00 +16°C° 1,3 mm 2 m/s 750 mmHg 81%
    19:00 +14°C° 1,3 mm 3 m/s 751 mmHg 85%
    20:00 +13°C° 3,9 mm 3 m/s 751 mmHg 87%
    21:00 +11°C° 3,9 mm 3 m/s 752 mmHg 89%
    22:00 +10°C° 3,9 mm 3 m/s 752 mmHg 91%
    23:00 +10°C° 0,9 mm 2 m/s 753 mmHg 92%
    Arată mai mult